This is the latest recevied weather packets stored in our database for station/object VK6DUG. If no packets are shown the sender has not sent any weather packets the latest 10 day(s).
| Time | Temp. | Humidity | Pressure | Rain* | Wind** | Luminosity | Snow |
|---|---|---|---|---|---|---|---|
| 1778129434 | 20.56° C | 50% | 1032.3 hPa | 0 mm | - | 546 W/m² | - |
| 1778128831 | 20.56° C | 50% | 1032.6 hPa | 0 mm | - | 545 W/m² | - |
| 1778128229 | 20.56° C | 50% | 1032.7 hPa | 0 mm | - | 542 W/m² | - |
| 1778127626 | 20.56° C | 50% | 1032.9 hPa | 0 mm | - | 538 W/m² | - |
| 1778127024 | 20.56° C | 51% | 1033.1 hPa | 0 mm | - | 533 W/m² | - |
| 1778126421 | 20° C | 51% | 1033.3 hPa | 0 mm | - | 532 W/m² | - |
| 1778125819 | 20.56° C | 51% | 1033.4 hPa | 0 mm | - | 533 W/m² | - |
| 1778125216 | 20° C | 51% | 1033.6 hPa | 0 mm | - | 533 W/m² | - |
| 1778124635 | 20° C | 52% | 1033.7 hPa | 0 mm | - | 528 W/m² | - |
| 1778124032 | 20° C | 52% | 1033.9 hPa | 0 mm | - | 518 W/m² | - |
| 1778123430 | 19.44° C | 53% | 1034 hPa | 0 mm | - | 501 W/m² | - |
| 1778122827 | 18.89° C | 54% | 1034.2 hPa | 0 mm | - | 482 W/m² | - |
| 1778122225 | 18.89° C | 54% | 1034.2 hPa | 0 mm | - | 467 W/m² | - |
| 1778121622 | 18.89° C | 55% | 1034.3 hPa | 0 mm | - | 455 W/m² | - |
| 1778121020 | 18.33° C | 56% | 1034.4 hPa | 0 mm | - | 438 W/m² | - |
| 1778120418 | 18.33° C | 57% | 1034.6 hPa | 0 mm | - | 414 W/m² | - |
| 1778119835 | 18.33° C | 58% | 1034.8 hPa | 0 mm | - | 389 W/m² | - |
| 1778119233 | 17.78° C | 60% | 1034.8 hPa | 0 mm | - | 363 W/m² | - |
| 1778118630 | 17.78° C | 62% | 1035 hPa | 0 mm | - | 336 W/m² | - |
| 1778118027 | 17.22° C | 64% | 1034.9 hPa | 0 mm | - | 309 W/m² | - |
| 1778117425 | 16.67° C | 67% | 1035.1 hPa | 0 mm | - | 278 W/m² | - |
| 1778116822 | 16.11° C | 69% | 1035.1 hPa | 0 mm | - | 246 W/m² | - |
| 1778116220 | 15.56° C | 70% | 1035.2 hPa | 0 mm | - | 221 W/m² | - |
| 1778115618 | 15° C | 73% | 1035.2 hPa | 0 mm | - | 201 W/m² | - |
| 1778115034 | 14.44° C | 76% | 1035.1 hPa | 0 mm | - | 171 W/m² | - |
* Rain latest hour (hover to see other rain measurements)
** Current wind speed in m/s (hover to see current wind gust speed)